Change the Weather History Date:

Friday, February 15, 2013

  Actual Average (KMRH) Record (KMRH)
Temperature  
Mean Temperature 48 °F -  
Max Temperature 54 °F 59 °F 74 °F (1950)
Min Temperature 43 °F 38 °F 21 °F (1969)
Degree Days  
Heating Degree Days 16    
Moisture  
Dew Point 39 °F    
Average Humidity 70    
Maximum Humidity 90    
Minimum Humidity 45    
Precipitation  
Precipitation 0.00 in - - ()
Sea Level Pressure  
Sea Level Pressure 30.05 in    
Wind  
Wind Speed 4 mph (NE)    
Max Wind Speed 8 mph    
Max Gust Speed -    
Visibility 10 miles    
Events      
Averages and records for this station are not official NWS values.
T = Trace of Precipitation, MM = Missing Value Source: NWS Daily Summary

Daily Weather History Graph

Daily Weather History Graph

Search for Another Location

Airport or City:

Trip Planner

Search our weather history database for the weather conditions in past years. The results will help you decide how hot, cold, wet, or windy it might be!

Date:

Astronomy

Feb. 15, 2013 Rise Set
Actual Time 6:51 AM EST 5:48 PM EST
Civil Twilight 6:25 AM EST 6:14 PM EST
Nautical Twilight 5:56 AM EST 6:44 PM EST
Astronomical Twilight 5:26 AM EST 7:13 PM EST
Moon 9:41 AM EST (2/15) 11:31 PM EST (2/15)
Length of Visible Light 11h 49m
Length of Day
10h 57m
Waxing Crescent, 30% of the Moon is Illuminated
Feb 15
Waxing Crescent
Feb 17
First Quarter
Feb 25
Full
Mar 4
Last Quarter
Mar 11
New

Hourly Weather History & Observations

Time (EST) Temp. Windchill Dew Point Humidity Pressure Visibility Wind Dir Wind Speed Gust Speed Precip Events Conditions
12:56 AM 46.0 °F - 41.0 °F 83% 30.09 in 10.0 mi Calm Calm - N/A   Clear
1:56 AM 45.0 °F 41.8 °F 42.1 °F 90% 30.07 in 10.0 mi North 5.8 mph - N/A   Clear
2:56 AM 44.1 °F 40.8 °F 41.0 °F 89% 30.07 in 10.0 mi North 5.8 mph - N/A   Clear
3:56 AM 45.0 °F 43.5 °F 41.0 °F 86% 30.08 in 10.0 mi North 3.5 mph - N/A   Clear
4:56 AM 46.0 °F 41.9 °F 41.0 °F 83% 30.07 in 10.0 mi NNW 8.1 mph - N/A   Clear
5:56 AM 43.0 °F - 39.9 °F 89% 30.07 in 10.0 mi Calm Calm - N/A   Clear
6:56 AM 44.1 °F 42.5 °F 39.9 °F 85% 30.09 in - North 3.5 mph - N/A   Clear
7:56 AM 46.9 °F - 42.1 °F 83% 30.09 in - North 4.6 mph - N/A   Clear
8:56 AM 48.9 °F - 43.0 °F 80% 30.12 in - North 5.8 mph - N/A   Clear
9:56 AM 52.0 °F - 42.1 °F 69% 30.11 in - NNE 8.1 mph - N/A   Clear
10:56 AM 52.0 °F - 39.0 °F 61% 30.11 in - NE 6.9 mph - N/A   Clear
11:56 AM 52.0 °F - 37.9 °F 59% 30.09 in - ENE 6.9 mph - N/A   Clear
12:56 PM 53.1 °F - 36.0 °F 52% 30.06 in - ENE 5.8 mph - N/A   Clear
1:56 PM 53.1 °F - 35.1 °F 50% 30.04 in - ENE 5.8 mph - N/A   Clear
2:56 PM 53.1 °F - 32.0 °F 45% 30.02 in - East 8.1 mph - N/A   Clear
3:56 PM 54.0 °F - 36.0 °F 51% 30.01 in - East 5.8 mph - N/A   Clear
4:56 PM 54.0 °F - 33.1 °F 45% 30.00 in - East 3.5 mph - N/A   Clear
5:56 PM 52.0 °F - 37.9 °F 59% 29.99 in - ESE 4.6 mph - N/A   Clear
6:56 PM 51.1 °F - 35.1 °F 54% 29.99 in - SE 3.5 mph - N/A   Clear
7:56 PM 48.9 °F - 37.9 °F 66% 29.99 in - SW 3.5 mph - N/A   Clear
8:56 PM 46.0 °F 43.1 °F 37.9 °F 73% 30.00 in - SW 5.8 mph - N/A   Clear
9:56 PM 48.0 °F - 39.0 °F 71% 30.00 in - Calm Calm - N/A   Clear
10:56 PM 48.0 °F - 39.0 °F 71% 29.99 in - Calm Calm - N/A   Clear
11:56 PM 46.9 °F - 39.0 °F 74% 29.98 in - Calm Calm - N/A   Clear